Tributaries of Vltava river

river Berounka - water gauge Beroun

Date and time (UTC) H (cm) Q (m³/s)
11. 8. 2022 09:50 64 5.1
11. 8. 2022 09:00 65 5
11. 8. 2022 08:00 66 6
11. 8. 2022 07:00 66 6
11. 8. 2022 06:00 67 6
11. 8. 2022 05:00 68 7
11. 8. 2022 04:00 68 7
11. 8. 2022 03:00 70 7
11. 8. 2022 02:00 70 7
11. 8. 2022 01:00 68 7
11. 8. 2022 00:00 67 6
10. 8. 2022 23:00 66 6
10. 8. 2022 22:00 66 6
10. 8. 2022 21:00 66 6

H - water level, Q - discharge

river Sázava - water gauge Nespeky

Date and time (UTC) H (cm) Q (m³/s)
11. 8. 2022 09:50 36 2.2
11. 8. 2022 09:00 35 2
11. 8. 2022 08:00 35 2
11. 8. 2022 07:00 35 2
11. 8. 2022 06:00 35 2
11. 8. 2022 05:00 36 2
11. 8. 2022 04:00 36 2
11. 8. 2022 03:00 36 2
11. 8. 2022 02:00 36 2
11. 8. 2022 01:00 37 2
11. 8. 2022 00:00 37 2
10. 8. 2022 23:00 37 2
10. 8. 2022 22:00 37 2
10. 8. 2022 21:00 38 3

H - water level, Q - discharge

river Otava - water gauge Písek

Date and time (UTC) H (cm) Q (m³/s)
11. 8. 2022 09:40 52 7.6
11. 8. 2022 09:00 55 8
11. 8. 2022 08:00 55 8
11. 8. 2022 07:00 55 8
11. 8. 2022 06:00 54 8
11. 8. 2022 05:00 54 8
11. 8. 2022 04:00 53 8
11. 8. 2022 03:00 54 8
11. 8. 2022 02:00 54 8
11. 8. 2022 01:00 54 8
11. 8. 2022 00:00 54 8
10. 8. 2022 23:00 55 8
10. 8. 2022 22:00 54 8
10. 8. 2022 21:00 52 8

H - water level, Q - discharge

river Lužnice - water gauge Bechyně

Date and time (UTC) H (cm) Q (m³/s)
11. 8. 2022 09:40 78 2.3
11. 8. 2022 09:00 79 2
11. 8. 2022 08:00 80 2
11. 8. 2022 07:00 81 3
11. 8. 2022 06:00 81 3
11. 8. 2022 05:00 82 3
11. 8. 2022 04:00 82 3
11. 8. 2022 03:00 80 2
11. 8. 2022 02:00 79 2
11. 8. 2022 01:00 78 2
11. 8. 2022 00:00 77 2
10. 8. 2022 23:00 77 2
10. 8. 2022 22:00 77 2
10. 8. 2022 21:00 77 2

H - water level, Q - discharge
Source data
Labe Basin Vltava Basin Povodí Moravy ČHMÚ